Tracking 28052 objects as of 22-Sep-2023
HD Live streaming from Space Station
objects crossing your sky now

DELTA 1 DEB

Track DELTA 1 DEB now!
10-day predictions


NORAD ID: 10757
Int'l Code: 1976-077BE
Perigee: 1,488.9 km
Apogee: 1,886.5 km
Inclination: 102.0 °
Period: 120.0 minutes
Semi major axis: 8058 km
RCS: 0.0976 m2 (small)
Launch date: July 29, 1976
Source: United States (US)
Launch site: AIR FORCE WESTERN TEST RANGE (AFWTR)

Note: This is SATELLITE DEBRIS
Your satellite tracking list
Your tracking list is empty




NASA's NSSDC Master Catalog

Two Line Element Set (TLE):
1 10757U 76077BE  23265.27431199  .00001791  00000-0  20745-1 0  9998
2 10757 101.9565  25.5592 0246702 334.3106  52.5324 12.00072737 63951
Source of the keplerian elements: AFSPC